Airfield :
LOGIN :

Register | Disclaimer

   EN    FR    IT 

 










Legend :    VFR   Marginal VFR   IFR   Intensive IFR   Very Intensive IFR
Visi :
Ceiling :
>= 8 km
>= 3000ft
5 to 8 km
1000 to 3000 ft
1500m to 5 km
500 to 1000 ft
800 to 1500m
200 to 500 ft
< 800m
< 200 ft
Symbols :   Thunderstorms  Fog  Heavy snow  Heavy precipitations  Wind > 20 kt
SIGMETs :     Misc.  Thunderstorms  Icing  Turbulence  Mountain Waves  Volcanic Ashes






- Airport Elevation : 74 ft
- IATA code : NDZ


ETMN - Cuxhaven Nordholz Sea AB

CURRENT METAR :
  • 100420Z 16003KT 9999 FEW050 SCT140 BKN240 17/10 Q1000 BLU+BLU

EXPIRED METARs :
  • 100320Z 15003KT 9999 FEW060 BKN240 15/11 Q1000 BLU+
  • 100220Z AUTO 22008KT 9000 // ////// 17/11 Q1001 ///

TAF TAF ETMN
Valid from the 10 at 05:00 until the 10 at 14:00 UTC


100423Z 1005/1014 16010KT 9999 NSW BKN100
TEMPO 1007/1014 18015G30KT 5000 SHRA SCT020 BKN040CB



MET'MAP, your aeronautical weather chart ! - Copyright ORBIFLY December 2007 - Disclaimer

ORBIFLY MET'MAP TEAM :

Programming & Development : Alexandra Zaïnal
Concept & original design : Baudouin d'Aumeries
Assistance for programming : Marc-Olivier Méhu
Technical & hardware support : Manuel Goepfert

Contact : metmap@orbifly.com




SOURCES & CREDITS :

   NOAA